Location: Horowhenua
(40.7500°S, 175.3333°E)
Time: 01:45:34
(UTC+00:00)

Cosmos 1766 - Pass Details

Date: 28 January 2023
Orbit: 508 x 530 km, 82.5° (Epoch: 20 March)

Event Time Altitude Azimuth Distance (km) Brightness Sun altitude
Rises 12:57:00 0° 144° (SE) 2,672 7.7 -30.8°
Enters shadow 13:01:26 - 99° (E) 2,561 6.9 -30.7°
Exits shadow 13:32:27 -59° 15° (NNE) 11,547 10.0 -29.4°
Reaches altitude 10° 14:32:33 10° 177° (S) 1,780 6.7 -24.7°
Maximum altitude 14:36:22 50° 100° (E) 678 3.9 -24.3°
